Terminal Aerodrome Forecast
Issued by NWS Houston/Galveston, TX

Home | Current Version | Previous Version | Text Only | Print | Product List | Glossary On
Versions: 1 2 3 4 5 6 7 8 9 10 11 12 13 14 15 16 17 18 19 20 21 22 23 24 25 26 27 28 29 30 31 32 33 34 35 36 37 38 39 40 41 42 43 44 45 46 47 48 49 50
000
FTUS44 KHGX 050540
TAFGLS
TAF
KGLS 050540Z 0506/0606 33020G30KT P6SM VCSH OVC009
     FM050900 35028G38KT P6SM -RA OVC004
     FM051700 36025G33KT P6SM VCSH OVC012
     FM052200 36020G28KT P6SM SCT025 BKN100=

USA.gov is the U.S. government's official web portal to all federal, state and local government web resources and services.